[[{"header":{"parameterUnit":"m.s-1","parameterCategory":1,"la1":30.2991,"la2":30.254,"lo1":-89.0895,"lo2":-89.0444,"dy":0.0017,"dx":0.0017,"nx":28,"ny":28,"refTime":"2024-03-10T03:00:00:Z","depth":0,"parameterNumber":2,"parameterNumberName":"U-component_of_WINDS"},"data":[0,0,0,0,0,0,0,0,0,0,0,0,0,0,0,0,0,0,0,0,0,0,0,0,0,0,0,0,0,0,0,0,0,0,0,0,0,0,0,0,0,0,0,0,0,0,0,0,0,0,0,0,0,0,0,0,0,0,-3.0526,-3.0525,0,-3.0503,-3.0503,-3.0503,-3.0387,-3.0385,-3.0382,-3.0379,-3.0361,-3.0363,-3.0366,0,0,0,0,0,0,0,0,0,0,0,0,0,-3.0475,-3.0477,-3.0526,-3.0525,-3.0525,-3.0503,-3.0503,-3.0503,-3.0388,-3.0385,-3.0381,-3.0378,-3.0361,-3.0363,-3.0366,0,0,0,0,0,0,0,0,0,0,0,0,0,-3.048,-3.0477,-3.0526,-3.0465,-3.0459,-3.0503,-3.0503,-3.0503,-3.0389,-3.0385,-3.038,-3.0377,-3.036,-3.0363,-3.0366,-3.0468,0,0,-3.0376,-3.0377,0,0,0,0,0,0,0,0,-3.048,-3.0482,-3.0474,-3.0469,-3.0463,-3.0444,-3.0478,-3.0491,-3.039,-3.0416,-3.0379,-3.0375,-3.0393,-3.0393,-3.0398,-3.0467,-3.0466,-3.0376,-3.0378,-3.0379,-3.038,0,0,0,0,0,0,0,-3.0479,-3.0482,-3.0517,-3.0474,-3.0468,-3.0441,-3.0437,-3.048,-3.0428,-3.0413,-3.0405,-3.0403,-3.0389,-3.0395,-3.0396,-3.0466,-3.0376,-3.0379,-3.0381,-3.0382,-3.0621,-3.0625,0,0,0,0,0,0,-3.0487,-3.0482,-3.0518,-3.0516,-3.0461,-3.0445,-3.0441,-3.0454,-3.0427,-3.0419,-3.0407,-3.0398,-3.0392,-3.0393,-3.0395,-3.0514,-3.0379,-3.0382,-3.0384,-3.0616,-3.0622,-3.0627,0,0,0,0,0,0,-3.0486,-3.0491,-3.0518,-3.0497,-3.0498,-3.045,-3.0467,-3.0456,-3.0462,-3.0422,-3.0413,-3.0423,-3.0388,-3.0391,-3.0451,-3.0512,-3.0384,-3.0386,-3.0611,-3.0618,-3.0624,-3.0753,0,0,0,0,0,0,-3.0485,-3.0491,-3.0528,-3.0499,-3.05,-3.0573,-3.047,-3.0459,-3.0467,-3.0455,-3.0434,-3.0427,-3.0385,-3.0447,-3.0454,-3.0514,-3.0389,-3.0606,-3.0614,-3.0622,-3.0743,-3.0763,-3.078,0,0,0,0,0,-3.0484,-3.0566,-3.0531,-3.0535,-3.0545,-3.0577,-3.0578,-3.0527,-3.0472,-3.051,-3.0485,-3.0428,-3.0504,-3.0454,-3.0461,-3.0523,-3.0601,-3.0612,-3.0622,-3.0734,-3.0759,-3.078,0,0,0,0,0,0,-3.0605,-3.0561,-3.0521,-3.0596,-3.0591,-3.0557,-3.0603,-3.0554,-3.0566,-3.0554,-3.0492,-3.0489,-3.0559,-3.0547,-3.0491,-3.0622,-3.0543,-3.0555,-3.0627,-3.065,-3.0668,-3.067,-3.0391,0,0,0,0,0,-3.064,-3.0668,-3.0628,-3.0698,-3.0698,-3.0651,-3.0663,-3.0624,-3.0617,-3.0615,-3.0594,-3.0591,-3.0615,-3.0631,-3.0651,-3.0741,-3.0736,-3.0787,-3.0806,-3.0821,-3.0833,-3.0882,-3.0905,-3.066,-3.066,-3.066,0,0,-3.0713,-3.0693,-3.0714,-3.0722,-3.0714,-3.0746,-3.065,-3.0688,-3.0712,-3.0621,-3.0676,-3.0662,-3.0654,-3.0731,-3.0763,-3.0723,-3.0899,-3.0834,-3.0847,-3.085,-3.0894,-3.0918,-3.0938,-3.0667,-3.0665,-3.0664,0,0,-3.0863,-3.085,-3.0907,-3.0901,-3.0889,-3.0858,-3.0872,-3.0846,-3.0832,-3.0886,-3.082,-3.0849,-3.089,-3.0888,-3.0893,-3.1045,-3.0994,-3.1053,-3.1151,-3.12,-3.1219,-3.1236,-3.1292,-3.1313,-3.1064,-3.1065,-3.1065,0,-3.0956,-3.1001,-3.0943,-3.0986,-3.0992,-3.0911,-3.097,-3.0967,-3.0963,-3.0971,-3.0925,-3.0977,-3.0966,-3.1041,-3.1079,-3.1085,-3.1101,-3.1055,-3.122,-3.1237,-3.1252,-3.1305,-3.1326,-3.1072,-3.1071,-3.107,-3.107,0,-3.1117,-3.1149,-3.1197,-3.1194,-3.1206,-3.1257,-3.1209,-3.1229,-3.119,-3.1164,-3.1222,-3.1207,-3.1222,-3.1237,-3.12,-3.1309,-3.1284,-3.1231,-3.1151,-3.1283,-3.1332,-3.1352,-3.1083,-3.108,-3.1078,-3.1076,0,0,-3.1341,-3.1307,-3.1326,-3.1324,-3.1306,-3.1331,-3.138,-3.1394,-3.1413,-3.1413,-3.1454,-3.1492,-3.1442,-3.1448,-3.141,-3.1452,-3.1577,-3.1394,-3.1393,-3.143,-3.1698,-3.1739,-3.1764,-3.1542,-3.1546,-3.1549,-3.1699,0,-3.1486,-3.1565,-3.1515,-3.1603,-3.1633,-3.1557,-3.16,-3.1595,-3.1573,-3.1598,-3.1574,-3.1602,-3.1534,-3.1537,-3.1576,-3.1553,-3.163,-3.1542,-3.1582,-3.1584,-3.1587,-3.1788,-3.1832,-3.1974,-3.1718,-3.1721,-3.1723,0,-3.1665,-3.1672,-3.1763,-3.1741,-3.1752,-3.179,-3.1801,-3.1824,-3.1818,-3.1799,-3.1807,-3.1759,-3.1807,-3.1728,-3.1796,-3.1737,-3.1751,-3.1743,-3.1747,-3.1749,-3.1662,-3.1798,-3.2018,-3.204,-3.1752,-3.175,-3.1748,0,-3.1822,-3.1855,-3.1913,-3.1914,-3.189,-3.1919,-3.1911,-3.19,-3.1913,-3.1922,-3.193,-3.1946,-3.1956,-3.197,-3.1929,-3.1875,-3.2003,-3.192,-3.1991,-3.1993,-3.2022,-3.2021,-3.2249,-3.203,-3.2029,-3.2029,-3.2028,0,-3.1989,-3.2047,-3.1984,-3.202,-3.2084,-3.2029,-3.2095,-3.2078,-3.207,-3.2104,-3.204,-3.2073,-3.2016,-3.2045,-3.2013,-3.2075,-3.208,-3.2068,-3.2059,-3.2074,-3.2076,-3.2083,-3.2072,-3.2034,-3.2033,-3.2032,-3.2031,0,-3.2174,-3.2134,-3.2193,-3.2165,-3.216,-3.2209,-3.2186,-3.222,-3.2194,-3.2237,-3.2245,-3.2205,-3.2235,-3.2196,-3.2223,-3.2201,-3.2287,-3.2263,-3.2289,-3.2282,-3.2356,-3.235,-3.2597,-3.2628,-3.2388,-3.239,-3.2392,0,-3.2284,-3.2327,-3.2304,-3.2321,-3.2316,-3.2345,-3.2357,-3.2305,-3.2321,-3.2319,-3.2354,-3.2378,-3.2395,-3.2448,-3.2424,-3.2445,-3.2421,-3.2506,-3.2424,-3.2439,-3.2424,-3.2423,-3.2428,-3.2524,-3.2527,-3.2529,-3.2531,0,-3.2483,-3.2462,-3.2481,-3.2494,-3.2511,-3.2519,-3.2522,-3.2541,-3.2487,-3.2508,-3.2538,-3.2551,-3.2579,-3.2606,-3.262,-3.2614,-3.2565,-3.2557,-3.2575,-3.2591,-3.2605,-3.26,-3.2336,-3.2552,-3.2549,-3.2548,-3.2547,-3.2546,-3.2635,-3.2671,-3.2661,-3.2685,-3.2682,-3.2688,-3.2719,-3.2697,-3.272,-3.2738,-3.2706,-3.2745,-3.274,-3.2755,-3.2754,-3.2785,-3.2749,-3.2774,-3.2781,-3.2788,-3.28,-3.26,-3.2788,-3.2787,-3.2787,-3.2786,-3.2786,0,-3.2832,-3.2822,-3.2845,-3.2852,-3.2873,-3.2823,-3.2825,-3.2846,-3.288,-3.2879,-3.2898,-3.2934,-3.296,-3.2937,-3.2959,-3.2989,-3.2967,-3.2997,-3.2995,-3.2994,-3.2831,-3.2814,-3.3014,-3.3014,-3.3014,-3.3014,-3.3014,-3.3014,-3.2937,-3.2996,-3.2973,-3.3031,-3.3021,-3.3057,-3.3063,-3.3069,-3.3068,-3.311,-3.3131,-3.3116,-3.3108,-3.3129,-3.3152,-3.3145,-3.3157,-3.3195,-3.318,-3.3028,-3.3006,-3.2984,-3.2968,-3.3197,-3.3198,-3.3341,-3.3343,-3.3344]},{"header":{"parameterUnit":"m.s-1","parameterCategory":1,"la1":30.2991,"la2":30.254,"lo1":-89.0895,"lo2":-89.0444,"dy":0.0017,"dx":0.0017,"nx":28,"ny":28,"refTime":"2024-03-10T03:00:00:Z","depth":0,"parameterNumber":3,"parameterNumberName":"V-component_of_WINDS"},"data":[0,0,0,0,0,0,0,0,0,0,0,0,0,0,0,0,0,0,0,0,0,0,0,0,0,0,0,0,0,0,0,0,0,0,0,0,0,0,0,0,0,0,0,0,0,0,0,0,0,0,0,0,0,0,0,0,0,0,0.1438,0.1437,0,0.1363,0.1362,0.1361,0.1351,0.1352,0.1353,0.1353,0.1275,0.1273,0.127,0,0,0,0,0,0,0,0,0,0,0,0,0,0.1571,0.1569,0.1438,0.1437,0.1436,0.1363,0.1362,0.1361,0.1351,0.1352,0.1353,0.1354,0.1276,0.1273,0.127,0,0,0,0,0,0,0,0,0,0,0,0,0,0.1506,0.1568,0.1438,0.1422,0.142,0.1364,0.1362,0.1361,0.1351,0.1352,0.1353,0.1354,0.1277,0.1273,0.1269,0.1222,0,0,0.1257,0.1255,0,0,0,0,0,0,0,0,0.151,0.1501,0.1425,0.1423,0.1421,0.1368,0.1381,0.1314,0.1351,0.1377,0.1353,0.1355,0.1305,0.1299,0.1282,0.1219,0.1215,0.1256,0.1254,0.1252,0.1251,0,0,0,0,0,0,0,0.1515,0.1505,0.1408,0.1424,0.1421,0.1419,0.1411,0.1368,0.1336,0.1375,0.1374,0.1365,0.1304,0.1286,0.128,0.1214,0.1256,0.1253,0.125,0.1249,0.1109,0.1108,0,0,0,0,0,0,0.1522,0.1508,0.1411,0.1406,0.1469,0.1415,0.1406,0.1384,0.1336,0.133,0.1365,0.1365,0.1293,0.1285,0.1278,0.1219,0.1252,0.1248,0.1246,0.111,0.1109,0.1107,0,0,0,0,0,0,0.1525,0.1513,0.1414,0.1457,0.1444,0.1412,0.1386,0.1382,0.1364,0.1329,0.1323,0.1352,0.1293,0.1283,0.1236,0.1217,0.1246,0.1243,0.1112,0.111,0.1108,0.1103,0,0,0,0,0,0,0.1529,0.1515,0.1497,0.1457,0.1442,0.1374,0.1385,0.1379,0.1357,0.1357,0.1316,0.131,0.1293,0.1243,0.1232,0.1211,0.1239,0.1113,0.1111,0.1109,0.1105,0.1101,0.1098,0,0,0,0,0,0.1534,0.1498,0.1496,0.1484,0.1419,0.1373,0.1364,0.1346,0.1356,0.1337,0.1315,0.1311,0.1221,0.1238,0.1226,0.1204,0.1114,0.1112,0.1109,0.1106,0.1102,0.1098,0,0,0,0,0,0,0.1535,0.1492,0.1489,0.144,0.141,0.1371,0.1347,0.1342,0.1309,0.131,0.129,0.128,0.1234,0.1215,0.1234,0.1156,0.1168,0.1163,0.117,0.1166,0.1163,0.1168,0.1236,0,0,0,0,0,0.153,0.1497,0.1461,0.142,0.1406,0.1379,0.1358,0.1348,0.1316,0.1303,0.1277,0.1246,0.1211,0.1187,0.1153,0.1103,0.1093,0.1082,0.1078,0.1076,0.1071,0.1042,0.1037,0.1098,0.1098,0.1098,0,0,0.1518,0.1491,0.147,0.142,0.1395,0.1361,0.1368,0.1332,0.1306,0.1297,0.1251,0.1231,0.1195,0.1146,0.1123,0.1128,0.1052,0.1072,0.1071,0.1067,0.1039,0.1033,0.1028,0.1096,0.1097,0.1097,0,0,0.1479,0.1455,0.1418,0.1394,0.1358,0.1341,0.1332,0.1295,0.1281,0.1235,0.1228,0.1197,0.1137,0.1111,0.109,0.1043,0.1039,0.1033,0.1015,0.0987,0.0982,0.0978,0.096,0.0954,0.1028,0.1028,0.1028,0,0.1468,0.1416,0.14,0.1364,0.1341,0.1334,0.1296,0.1274,0.1228,0.1212,0.1219,0.1143,0.1119,0.1064,0.1052,0.1036,0.1025,0.1036,0.0985,0.098,0.0976,0.0958,0.0952,0.1028,0.1028,0.1028,0.1028,0,0.1405,0.137,0.1344,0.1301,0.1276,0.1239,0.1217,0.1194,0.1186,0.1168,0.1121,0.1092,0.1051,0.1038,0.1029,0.0982,0.0986,0.0989,0.1,0.0969,0.0953,0.0946,0.1027,0.1027,0.1027,0.1028,0,0,0.1362,0.1312,0.1303,0.1283,0.1243,0.1215,0.1178,0.1139,0.1119,0.1089,0.1057,0.1007,0.101,0.0986,0.0975,0.0951,0.0915,0.0957,0.0956,0.0949,0.086,0.0856,0.0849,0.0913,0.0911,0.091,0.0862,0,0.1317,0.1252,0.1237,0.118,0.1147,0.114,0.1108,0.108,0.1063,0.1032,0.1013,0.0977,0.0984,0.097,0.0946,0.0924,0.0896,0.0928,0.0882,0.088,0.0889,0.0841,0.0837,0.0793,0.0856,0.0855,0.0854,0,0.1255,0.1224,0.1164,0.1129,0.1115,0.1086,0.105,0.102,0.0989,0.0978,0.0953,0.0944,0.0905,0.0921,0.0867,0.0888,0.0869,0.0856,0.0854,0.0847,0.0864,0.0831,0.0778,0.0771,0.0844,0.0845,0.0845,0,0.1229,0.1172,0.1129,0.1112,0.1071,0.1051,0.1032,0.1002,0.098,0.0948,0.0933,0.0897,0.0877,0.0849,0.0831,0.0844,0.0778,0.0792,0.0768,0.0768,0.0752,0.0753,0.0694,0.0743,0.0743,0.0743,0.0743,0,0.1179,0.1142,0.1116,0.1089,0.1048,0.1032,0.0991,0.0973,0.0946,0.0916,0.0908,0.0879,0.0858,0.0827,0.0812,0.0769,0.0761,0.075,0.0747,0.075,0.0751,0.0736,0.0737,0.0741,0.0742,0.0742,0.0742,0,0.1141,0.1122,0.1075,0.104,0.103,0.1001,0.0971,0.0945,0.0929,0.089,0.088,0.0854,0.0817,0.0797,0.0749,0.074,0.0691,0.069,0.0702,0.07,0.0676,0.0678,0.0603,0.0592,0.065,0.065,0.0649,0,0.111,0.1082,0.1044,0.1024,0.1005,0.0972,0.0949,0.0933,0.091,0.0872,0.085,0.0813,0.0781,0.0722,0.0698,0.0662,0.0659,0.0636,0.0654,0.0658,0.0657,0.0658,0.0655,0.0632,0.0631,0.0631,0.063,0,0.1056,0.1048,0.1016,0.0981,0.0955,0.0927,0.0899,0.0882,0.0861,0.0835,0.0797,0.0773,0.0726,0.0688,0.0651,0.0632,0.0627,0.0626,0.0618,0.062,0.0627,0.0622,0.0692,0.0627,0.0627,0.0627,0.0627,0.0628,0.1019,0.0994,0.0964,0.0929,0.0906,0.088,0.0854,0.0835,0.0803,0.0763,0.0756,0.0715,0.0685,0.0634,0.0614,0.0582,0.0587,0.0576,0.0573,0.057,0.0568,0.0634,0.0576,0.0576,0.0576,0.0576,0.0576,0,0.0964,0.0944,0.0913,0.0874,0.0846,0.0846,0.0816,0.0792,0.0757,0.073,0.0699,0.0656,0.062,0.0594,0.0557,0.0537,0.0534,0.0527,0.0528,0.0523,0.0567,0.0577,0.053,0.053,0.053,0.053,0.053,0.053,0.0931,0.0888,0.0877,0.0823,0.0804,0.0765,0.0747,0.0723,0.0701,0.0653,0.0623,0.0607,0.0581,0.0542,0.0509,0.0502,0.0488,0.0482,0.0475,0.0516,0.052,0.0525,0.0534,0.048,0.0479,0.0434,0.0434,0.0433]}]]